Terminal Aerodrome Forecast
Issued by NWS Quad Cities IA IL

Home | Current Version | Previous Version | Text Only | Print | Product List | Glossary On
Versions: 1 2 3 4 5 6 7 8 9 10 11 12 13 14 15 16 17 18 19 20 21 22 23 24 25
000
FTUS43 KDVN 201500 AAA
TAFMLI
TAF AMD
KMLI 201520Z 2015/2112 12005KT 6SM HZ OVC025
      TEMPO 2015/2017 OVC035
     FM201700 16005KT P6SM OVC015
     FM210200 16005KT 6SM BR OVC008=

USA.gov is the U.S. government's official web portal to all federal, state and local government web resources and services.